{"data":{"norad_id":64504,"intl_designator":"2025-134E","name":"KUIPER-00043","alt_names":[],"object_type":"PAYLOAD","status":"ACTIVE","operator":null,"country":"US","launch_date":"2025-06-23","launch_site_code":"AFETR","launch_vehicle":null,"mission":null,"orbit_class":"UNKNOWN","rcs_meters":null,"size_class":null,"mass_kg":null,"dimensions":null,"purposes":[],"wikipedia_slug":null,"has_3d_model":false,"image_url":null,"decayed_at":null,"tle_current":{"epoch":"2026-05-25T00:58:02.332992Z","epoch_age_seconds":74737,"freshness":"FRESH","line1":"1 64504U 25134E   26145.04030478  .00008825  00000+0  11852-2 0  9999","line2":"2 64504  51.9000 255.4195 0000646 101.4036 258.6999 14.79928555 51388","mean_motion":14.79928555,"eccentricity":6.46e-5,"inclination_deg":51.9,"raan_deg":255.4195,"arg_perigee_deg":101.4036,"mean_anomaly_deg":258.6999,"bstar":0.0011852,"rev_number":5138,"period_min":97.301994419589,"perigee_km":629.09696441534,"apogee_km":630.00235753194,"semimajor_km":7007.6866609736,"source":"CELESTRAK","updated_at":"2026-05-25T13:38:04.571918Z"}}}